Stations météo

réclame
Mon MeteoGroup
Schaffen, Belgique (6465): Température de l'air & dewpoint: 20.05.2018 23:00:00 - 26.05.2018 23:00:00 (CEST)Schaffen, Belgique (6465): Vitesse du vent & gusts: 20.05.2018 23:00:00 - 26.05.2018 23:00:00 (CEST)Schaffen, Belgique (6465): Direction du vent: 20.05.2018 23:00:00 - 26.05.2018 23:00:00 (CEST)Schaffen, Belgique (6465): reduced air pressure: 20.05.2018 23:00:00 - 26.05.2018 23:00:00 (CEST)Schaffen, Belgique (6465): visibility: 20.05.2018 23:00:00 - 26.05.2018 23:00:00 (CEST)
Date & Time tt [°C] td [°C] ff [km/h] ff [knt] fx [km/h] fx [knt] dd ppp [hPa] vv [km]
26.05.2018 23:00:00 - - - - - - - - -
26.05.2018 22:00:00 - - - - - - - - -
26.05.2018 21:00:00 - - - - - - - - -
26.05.2018 20:00:00 - - - - - - - - -
26.05.2018 19:00:00 28,0 14,4 14 8 25 14 ENE 1017,7 20
26.05.2018 18:00:00 28,7 14,7 11 6 22 12 E 1017,8 20
26.05.2018 17:00:00 29,5 14,4 11 6 - - SE 1018,2 20
26.05.2018 16:00:00 29,0 14,7 11 6 25 14 SE 1018,5 20
26.05.2018 15:00:00 28,3 14,7 11 6 29 16 ESE 1018,8 19
26.05.2018 14:00:00 27,9 13,5 14 8 - - E 1019,1 20
26.05.2018 13:00:00 27,0 14,5 14 8 25 14 E 1019,1 20
26.05.2018 12:00:00 26,2 16,3 14 8 22 12 ENE 1019,2 20
26.05.2018 11:00:00 25,1 15,5 11 6 - - E 1019,2 18
26.05.2018 10:00:00 23,5 15,6 7 4 11 6 ENE 1019,2 17
26.05.2018 09:00:00 21,1 16,5 4 2 7 4 N 1019,1 10
26.05.2018 08:00:00 18,3 15,8 4 2 - - N 1019,1 6
26.05.2018 07:00:00 15,1 14,5 4 2 7 4 N 1018,8 2,7
26.05.2018 06:00:00 16,1 14,9 4 2 4 2 N 1018,3 3,8
26.05.2018 05:00:00 15,9 14,9 4 2 - - N 1018,2 3,7
26.05.2018 04:00:00 16,2 14,9 4 2 7 4 N 1018,2 3,8
26.05.2018 03:00:00 16,3 15,2 7 4 7 4 NNE 1018,3 3,8
26.05.2018 02:00:00 18,0 15,5 4 2 - - N 1018,6 5
26.05.2018 01:00:00 18,5 15,8 7 4 7 4 N 1018,6 4,5
26.05.2018 00:00:00 19,0 16,0 7 4 7 4 NNW 1018,3 6
25.05.2018 23:00:00 20,3 16,0 7 4 - - N 1018,2 8
25.05.2018 22:00:00 20,9 15,9 11 6 14 8 NNW 1018,0 11
25.05.2018 21:00:00 23,0 13,7 4 2 7 4 N 1017,3 20
25.05.2018 20:00:00 24,8 13,5 4 2 - - N 1017,2 20
25.05.2018 19:00:00 25,7 11,9 4 2 7 4 N 1016,8 20
25.05.2018 18:00:00 26,2 11,3 4 2 14 8 N 1017,2 20
25.05.2018 17:00:00 25,6 12,4 4 2 - - N 1017,6 20
25.05.2018 16:00:00 25,2 13,0 4 2 14 8 N 1017,7 16
25.05.2018 15:00:00 25,2 14,5 7 4 14 8 S 1017,7 19
25.05.2018 14:00:00 24,2 14,4 7 4 - - S 1017,7 20
25.05.2018 13:00:00 23,8 15,4 7 4 18 10 S 1018,0 13
25.05.2018 12:00:00 22,6 15,7 7 4 18 10 S 1018,1 20
25.05.2018 11:00:00 21,5 16,8 4 2 - - N 1018,0 19
25.05.2018 10:00:00 19,5 16,1 4 2 11 6 N 1018,1 20
25.05.2018 09:00:00 17,6 15,7 7 4 11 6 S 1018,1 12
25.05.2018 08:00:00 14,8 14,4 4 2 - - N 1017,7 2,4
25.05.2018 07:00:00 13,5 13,5 4 2 7 4 N 1017,7 0,8
25.05.2018 06:00:00 13,0 13,0 4 2 7 4 N 1017,3 0,2
25.05.2018 05:00:00 13,5 13,5 7 4 - - S 1017,1 0,9
25.05.2018 04:00:00 14,0 13,9 4 2 7 4 N 1017,0 0,8
25.05.2018 03:00:00 14,5 14,5 4 2 11 6 N 1017,0 1,3
25.05.2018 02:00:00 14,8 14,8 8 4 - - SE 1017,2 1,7
25.05.2018 01:00:00 15,1 15,0 4 2 4 2 N 1017,2 2,2
25.05.2018 00:00:00 15,8 15,5 4 2 7 4 N 1017,3 4,3
24.05.2018 23:00:00 15,7 15,3 4 2 - - N 1017,2 5
24.05.2018 22:00:00 16,2 15,8 4 2 11 6 N 1017,1 3,9
24.05.2018 21:00:00 16,6 16,1 7 4 14 8 E 1016,5 4,1
24.05.2018 20:00:00 18,8 15,5 7 4 - - SE 1016,3 19
24.05.2018 19:00:00 19,8 18,2 4 2 11 6 N 1015,8 6
24.05.2018 18:00:00 21,2 15,7 7 4 22 12 ENE 1016,2 13
24.05.2018 17:00:00 21,2 15,2 14 8 - - ENE 1016,2 18
24.05.2018 16:00:00 22,6 14,7 14 8 25 14 ENE 1016,3 16
24.05.2018 15:00:00 23,9 14,3 11 6 25 14 ENE 1016,8 19
24.05.2018 14:00:00 22,5 14,4 11 6 - - ENE 1017,5 20
24.05.2018 13:00:00 22,8 13,7 11 6 25 14 ENE 1017,7 20
24.05.2018 12:00:00 21,9 13,5 14 8 25 14 NE 1018,1 20
24.05.2018 11:00:00 21,2 14,3 11 6 - - ENE 1018,3 20
24.05.2018 10:00:00 20,0 13,0 11 6 18 10 ENE 1018,7 20
24.05.2018 09:00:00 17,7 12,6 7 4 11 6 NNE 1019,0 20
24.05.2018 08:00:00 15,8 10,2 4 2 - - N 1019,1 20
24.05.2018 07:00:00 13,5 9,7 7 4 11 6 NNE 1019,2 20
24.05.2018 06:00:00 14,1 9,4 4 2 7 4 N 1019,2 20
24.05.2018 05:00:00 14,3 9,4 7 4 - - N 1019,3 20
24.05.2018 04:00:00 15,5 9,7 4 2 7 4 N 1019,5 20
24.05.2018 03:00:00 16,2 9,9 7 4 7 4 NNE 1019,7 20
24.05.2018 02:00:00 16,8 10,4 4 2 - - N 1020,1 20
24.05.2018 01:00:00 17,8 11,1 7 4 18 10 S 1020,1 20
24.05.2018 00:00:00 19,1 10,0 11 6 22 12 NE 1019,7 20
23.05.2018 23:00:00 18,7 11,6 11 6 - - NE 1019,5 20
23.05.2018 22:00:00 17,9 12,6 11 6 14 8 NNE 1019,5 20
23.05.2018 21:00:00 19,7 12,6 7 4 18 10 N 1019,1 20
23.05.2018 20:00:00 21,4 12,4 7 4 - - ENE 1019,0 20
23.05.2018 19:00:00 22,1 13,2 11 6 25 14 E 1018,7 20
23.05.2018 18:00:00 21,9 12,4 11 6 25 14 ENE 1018,6 20
23.05.2018 17:00:00 23,2 14,6 14 8 - - NNE 1018,5 18
23.05.2018 16:00:00 22,4 14,8 14 8 25 14 ENE 1018,8 10
23.05.2018 15:00:00 22,7 15,2 14 8 25 14 NE 1019,3 15
23.05.2018 14:00:00 21,3 13,8 11 6 - - NE 1019,5 16
23.05.2018 13:00:00 21,1 14,6 7 4 18 10 E 1019,6 12
23.05.2018 12:00:00 19,8 15,3 7 4 18 10 NE 1019,3 9
23.05.2018 11:00:00 17,7 14,9 11 6 - - NE 1019,3 10
23.05.2018 10:00:00 16,3 14,9 7 4 18 10 NNE 1019,2 6
23.05.2018 09:00:00 15,5 14,6 7 4 14 8 N 1018,7 5
23.05.2018 08:00:00 14,6 14,4 7 4 - - NW 1018,3 2,4
23.05.2018 07:00:00 14,1 13,9 11 6 18 10 NW 1017,7 2,4
23.05.2018 06:00:00 13,8 13,7 4 2 7 4 N 1017,2 2,6
23.05.2018 05:00:00 13,6 13,3 4 2 - - N 1016,7 4,2
23.05.2018 04:00:00 13,5 13,3 4 2 7 4 N 1016,7 2,6
23.05.2018 03:00:00 13,6 13,5 7 4 7 4 NNW 1016,6 4,2
23.05.2018 02:00:00 13,8 13,5 4 2 - - N 1016,6 5
23.05.2018 01:00:00 14,1 13,8 4 2 7 4 N 1016,5 3,7
23.05.2018 00:00:00 13,9 13,6 4 2 11 6 N 1015,7 1,5
22.05.2018 23:00:00 14,0 13,5 4 2 - - N 1015,7 6
22.05.2018 22:00:00 13,8 13,8 4 2 11 6 N 1015,5 2,2
22.05.2018 21:00:00 14,8 13,9 4 2 14 8 - 1014,6 12
22.05.2018 20:00:00 15,1 14,8 7 4 - - N 1014,6 17
22.05.2018 19:00:00 15,0 13,9 7 4 18 10 WNW 1014,2 20
22.05.2018 18:00:00 16,6 14,0 7 4 18 10 W 1014,2 20
22.05.2018 17:00:00 17,7 12,1 11 6 - - N 1013,7 20
22.05.2018 16:00:00 18,1 10,8 18 10 32 18 ENE 1012,7 20
22.05.2018 15:00:00 23,8 13,2 4 2 14 8 N 1012,1 13
22.05.2018 14:00:00 23,1 13,0 4 2 - - N 1012,2 20
22.05.2018 13:00:00 23,1 12,6 4 2 11 6 - 1012,3 20
22.05.2018 12:00:00 21,5 13,4 7 4 11 6 NE 1012,6 20
22.05.2018 11:00:00 20,2 13,4 4 2 - - N 1012,7 20
22.05.2018 10:00:00 18,7 13,2 4 2 7 4 N 1012,7 14
22.05.2018 09:00:00 16,7 13,0 4 2 7 4 N 1012,5 14
22.05.2018 08:00:00 14,8 12,5 4 2 - - N 1012,2 12
22.05.2018 07:00:00 12,3 11,5 4 2 7 4 N 1011,8 10
22.05.2018 06:00:00 12,0 11,0 7 4 7 4 ENE 1011,7 13
22.05.2018 05:00:00 11,8 11,1 7 4 - - NNW 1011,7 20
22.05.2018 04:00:00 13,6 11,1 4 2 4 2 N 1011,7 20
22.05.2018 03:00:00 14,1 11,1 4 2 11 6 N 1011,7 20
22.05.2018 02:00:00 14,3 11,2 7 4 - - ENE 1011,8 20
22.05.2018 01:00:00 15,5 11,3 4 2 11 6 N 1011,8 20
22.05.2018 00:00:00 16,5 11,1 4 2 11 6 N 1012,1 20
21.05.2018 23:00:00 17,3 11,2 7 4 - - E 1012,2 20
21.05.2018 22:00:00 18,1 11,5 7 4 18 10 E 1012,2 20
21.05.2018 21:00:00 19,4 12,6 11 6 22 12 E 1011,7 20
21.05.2018 20:00:00 20,5 11,8 7 4 - - ENE 1011,6 20
21.05.2018 19:00:00 20,9 14,2 7 4 18 10 ESE 1011,7 20
21.05.2018 18:00:00 22,8 11,1 11 6 25 14 SE 1011,7 20
21.05.2018 17:00:00 24,3 9,7 11 6 - - ESE 1011,7 20
21.05.2018 16:00:00 25,4 9,7 14 8 29 16 E 1012,3 20
21.05.2018 15:00:00 24,4 10,0 14 8 36 19 E 1013,0 20
21.05.2018 14:00:00 22,8 10,4 18 10 - - ENE 1013,5 20
21.05.2018 13:00:00 21,5 10,8 11 6 22 12 E 1014,3 19
21.05.2018 12:00:00 18,9 10,4 11 6 25 14 ENE 1015,0 20
21.05.2018 11:00:00 18,0 9,1 11 6 - - ENE 1015,5 20
21.05.2018 10:00:00 16,5 11,6 4 2 14 8 N 1016,0 20
21.05.2018 09:00:00 15,1 10,7 7 4 14 8 NNE 1016,5 19
21.05.2018 08:00:00 13,1 12,7 4 2 - - N 1017,0 5
21.05.2018 07:00:00 12,8 12,6 4 2 7 4 N 1017,3 3,3
21.05.2018 06:00:00 12,5 12,1 4 2 7 4 N 1017,2 4,1
21.05.2018 05:00:00 12,1 12,1 4 2 - - N 1017,6 2,4
21.05.2018 04:00:00 12,8 12,7 4 2 7 4 N 1017,8 3,7
21.05.2018 03:00:00 13,1 12,7 4 2 7 4 N 1018,3 4,8
21.05.2018 02:00:00 12,9 12,4 4 2 - - N 1019,0 6
21.05.2018 01:00:00 12,6 12,1 4 2 7 4 N 1019,6 6
21.05.2018 00:00:00 12,9 12,5 4 2 11 6 N 1019,6 7
20.05.2018 23:00:00 12,5 12,4 7 4 - - N 1019,6 2,8

tt = Température de l'air
td = dewpoint
ff = Vitesse du vent
fx = gusts
dd = Direction du vent
ppp = reduced air pressure
vv = visibility

stations d'obs. à proximité